EHI
92 82 57 25 4 0 0 0 0 0 0 0 0 0 0 0 0 0 0 3 16 24 11 1 0 0 0 0 0 0 0 0 0 0 0 0 0 0 0 0 0 0 0 1 1 1 1 1 0
86 64 39 20 7 0 0 0 0 0 0 0 0 0 0 0 0 0 0 2 9 13 6 0 0 0 0 0 0 0 0 0 0 0 0 0 0 0 0 0 0 0 0 0 1 1 0 0 1
68 46 28 21 7 0 0 0 0 0 0 0 0 0 0 0 0 0 0 0 3 5 3 1 0 0 0 0 0 0 0 0 0 0 0 0 0 0 0 0 0 0 0 0 1 0 0 0 1
35 26 21 14 4 0 0 0 0 0 0 0 0 0 0 0 0 0 0 0 2 4 3 1 0 0 0 0 0 0 0 0 0 0 0 0 0 0 0 0 0 0 0 0 0 0 0 0 1
8 7 5 3 0 0 0 0 0 0 0 0 0 0 0 0 0 0 0 0 2 2 2 1 0 0 0 0 0 0 0 0 0 0 0 0 0 0 0 0 0 0 0 0 0 0 0 0 0
1 0 0 0 0 0 0 0 0 0 0 0 0 0 0 0 0 0 0 0 1 1 0 0 0 0 0 0 0 0 0 0 0 0 0 0 0 0 0 0 0 0 0 0 0 0 0 0 0
0 0 0 0 0 0 0 0 0 0 0 0 0 0 0 0 0 0 0 0 1 1 0 0 0 0 0 0 0 0 0 0 0 0 0 0 0 0 0 0 0 0 0 0 0 0 0 0 0
0 0 0 0 0 0 0 0 0 0 0 0 0 0 0 0 0 0 0 0 0 0 0 0 0 0 0 0 0 0 0 0 0 0 0 0 0 0 0 0 0 0 0 0 0 0 0 0 0
0 0 0 0 0 0 0 0 0 0 0 0 0 0 0 0 0 0 0 0 0 0 0 0 0 0 0 0 0 0 0 0 0 0 0 0 0 0 0 0 0 0 0 0 0 0 0 0 0
0 0 0 0 0 0 0 0 0 0 0 0 0 1 1 1 0 0 0 0 0 0 1 0 0 0 0 0 0 0 0 0 0 0 0 0 0 0 0 0 0 0 0 0 0 0 0 0 0
0 0 0 0 0 0 0 0 0 0 0 0 1 2 2 1 0 0 0 0 0 0 0 0 0 0 0 0 0 0 0 0 0 0 0 0 0 0 0 0 0 0 0 0 0 0 0 0 0
0 0 0 0 0 0 0 0 0 0 0 0 1 2 2 1 0 0 0 0 0 0 0 0 0 0 0 0 0 0 0 0 0 0 0 0 0 0 0 0 0 0 0 0 0 0 0 0 0
0 0 0 0 0 0 0 0 0 0 0 0 1 1 1 0 0 0 0 0 1 2 1 0 1 1 1 0 0 0 0 0 0 0 0 0 0 0 0 0 0 0 0 0 0 0 0 0 0
0 0 0 0 0 0 0 0 0 0 0 0 0 0 0 0 0 0 0 1 4 6 4 3 2 2 2 1 0 0 0 0 0 0 0 0 0 0 0 0 0 0 0 0 0 0 0 0 0
0 0 0 0 0 0 0 0 0 0 0 0 0 0 0 0 0 0 0 1 6 9 15 17 10 3 4 3 1 1 0 0 0 0 0 0 0 0 0 0 0 0 0 0 0 0 0 0 0
0 0 0 0 0 0 0 0 0 0 0 0 0 0 0 0 0 0 0 0 4 10 27 43 32 15 16 17 12 7 5 3 1 0 0 0 0 0 0 0 0 0 0 0 0 0 0 0 0
0 0 0 0 0 0 0 0 0 0 0 0 0 0 0 0 0 0 0 0 3 10 32 60 63 48 47 47 33 21 17 13 6 1 0 0 0 0 0 0 0 0 0 0 0 0 0 0 0
0 0 0 0 0 0 0 0 0 0 0 0 0 0 0 0 0 2 5 6 6 11 32 65 85 84 83 77 57 40 38 33 23 13 7 2 0 0 0 0 0 0 0 0 0 0 0 0 0
0 0 0 0 0 0 0 0 0 0 0 0 0 0 0 1 7 19 26 20 14 18 35 66 91 99 99 93 76 58 50 46 40 32 21 10 3 0 1 1 0 0 1 2 2 0 0 0 0
0 0 0 0 0 0 0 0 0 0 0 0 0 0 0 4 20 45 49 33 28 38 49 69 91 98 97 94 81 59 40 33 34 33 26 14 4 2 4 3 0 1 3 5 4 1 0 0 0
0 0 0 0 0 0 0 0 0 0 0 0 0 0 0 5 30 60 62 46 50 63 66 74 87 86 78 73 63 43 23 13 14 17 15 9 2 5 10 7 1 1 5 6 4 1 0 0 0
0 0 0 0 0 0 0 0 0 0 0 0 0 0 0 6 34 68 71 60 65 69 65 71 75 58 41 36 34 27 16 6 5 7 6 2 0 5 12 8 2 1 3 5 3 1 0 0 0
0 0 0 0 0 0 0 0 0 0 0 0 0 0 0 9 40 73 78 70 72 67 57 62 59 33 13 10 14 16 10 5 5 6 3 2 1 3 6 4 1 0 1 2 3 3 1 0 0
0 0 0 0 0 0 0 0 0 0 0 0 0 0 1 12 44 73 81 81 81 70 57 54 48 27 7 2 5 5 4 2 4 3 2 1 1 0 0 0 0 0 0 1 3 4 2 0 0
0 0 0 0 0 0 0 0 0 0 0 0 0 0 2 17 47 72 80 81 76 64 49 39 36 27 11 2 0 1 1 1 1 0 0 0 0 0 0 0 0 0 0 0 2 2 1 0 0
0 0 0 0 0 0 0 0 0 0 0 0 0 0 3 19 44 58 59 56 48 41 31 22 23 24 14 3 0 0 1 0 0 0 1 1 1 1 0 0 0 0 0 0 0 0 0 0 0
0 0 0 0 0 0 0 0 0 0 0 0 0 0 1 11 24 27 25 23 23 26 25 17 17 18 13 4 0 0 1 0 0 1 2 2 1 0 0 0 0 0 0 0 0 0 0 0 0
0 0 0 0 0 0 0 0 0 0 0 0 0 0 0 2 4 5 4 6 18 36 42 30 18 15 13 5 0 1 1 1 0 1 2 1 0 0 0 0 0 0 0 0 0 0 0 0 0
0 0 0 0 0 0 0 0 0 0 0 0 0 0 0 0 0 0 0 6 29 60 72 55 30 23 25 15 6 4 2 1 1 1 1 1 0 0 0 0 0 0 0 0 0 0 0 0 0
0 0 0 0 0 0 0 0 0 0 0 0 0 0 0 0 0 0 0 8 37 74 90 74 43 36 42 28 12 8 3 1 2 2 2 1 0 0 0 0 0 0 0 0 0 0 0 0 0
Wind_Speed
15 12 8 3 2 1 8 5 9 9 9 8 8 7 12 14 10 7 4 7 15 15 14 12 11 10 9 9 9 9 9 8 8 8 8 9 10 10 9 9 8 8 9 10 9 10 10 10 11
13 8 3 3 1 2 7 6 9 10 7 3 5 8 13 13 12 11 6 9 14 15 13 12 12 10 9 9 9 9 9 9 8 8 8 8 9 9 9 9 9 8 9 10 10 12 12 13 13
13 8 4 3 1 5 7 7 8 9 7 7 6 10 12 8 9 9 10 11 13 14 13 14 13 10 10 9 9 9 9 9 8 8 7 8 9 10 9 9 9 9 9 11 11 12 13 13 13
6 4 5 3 2 8 6 6 6 4 4 5 5 11 11 10 9 12 12 13 13 13 13 14 13 11 10 9 9 9 9 9 9 8 8 8 9 10 9 8 8 8 9 10 10 10 12 12 12
4 5 4 5 3 7 4 6 6 4 6 8 10 14 11 10 14 14 11 13 13 13 12 13 12 11 10 9 9 8 9 10 10 9 8 9 10 10 10 9 8 8 8 9 8 9 11 11 11
3 5 1 2 5 5 2 2 2 3 4 2 5 12 9 10 11 12 11 9 13 12 12 13 12 11 10 9 9 10 10 10 10 10 10 10 10 10 10 9 8 7 7 8 9 10 11 11 11
5 7 4 7 2 3 1 4 5 5 4 4 6 9 9 12 9 10 11 9 12 11 11 12 11 10 10 10 11 11 11 11 11 11 11 11 11 10 10 10 8 7 7 8 9 9 10 9 8
3 6 8 3 3 2 2 1 2 5 4 5 2 6 9 13 11 10 11 10 12 11 10 12 12 12 10 9 11 12 12 12 12 12 12 12 11 11 10 9 8 8 8 8 8 7 7 6 4
4 6 5 4 3 2 3 1 1 1 3 2 4 11 14 16 13 11 10 8 11 12 11 11 12 10 10 11 11 10 11 11 11 10 12 12 7 7 7 11 9 9 8 8 7 6 6 5 4
5 7 7 1 5 2 4 1 1 1 2 2 8 14 17 13 13 11 10 10 10 10 12 10 12 10 8 9 8 6 6 7 7 6 8 6 4 5 9 10 10 9 9 8 6 7 7 7 4
9 10 8 6 6 5 2 2 2 3 2 2 9 15 16 13 12 12 11 11 11 7 8 12 11 11 10 8 6 3 2 4 4 7 8 5 6 6 7 4 5 5 7 5 5 5 6 4 2
7 9 10 8 6 5 7 5 3 4 4 4 4 15 16 13 12 11 10 9 10 10 7 8 11 11 11 10 7 5 4 3 3 4 6 5 4 5 6 5 5 5 4 4 4 3 1 2 3
8 10 10 6 5 7 9 7 5 7 5 5 2 11 15 14 13 12 10 11 11 10 9 7 9 11 10 8 7 8 6 6 5 3 2 4 3 4 5 4 4 5 4 3 2 2 3 5 6
10 9 9 11 10 9 10 10 10 11 9 10 8 7 10 12 15 13 11 10 12 11 11 9 7 10 11 8 6 6 6 4 5 4 3 4 3 4 5 4 4 2 2 3 2 4 4 4 5
8 11 13 14 15 12 11 12 13 13 9 8 7 7 9 11 11 14 13 11 13 12 12 12 8 9 10 10 9 6 5 6 4 4 5 5 4 4 5 4 4 3 2 3 3 4 3 5 3
14 14 13 14 12 11 11 10 8 5 8 7 7 7 7 8 8 10 12 10 11 12 11 12 9 8 8 7 7 6 6 6 4 4 3 5 5 4 4 4 5 5 4 3 4 3 2 4 3
11 8 10 11 6 7 8 9 6 5 5 6 6 7 8 8 6 8 10 10 10 9 10 13 8 6 7 6 4 4 5 6 5 4 3 4 5 5 3 4 3 5 3 3 4 3 2 3 3
7 6 6 8 12 15 14 11 7 6 7 7 6 8 8 9 7 6 7 7 8 8 8 10 9 6 5 5 3 2 2 3 4 5 5 5 3 5 4 3 4 4 4 3 4 4 3 3 3
7 9 9 8 10 11 13 20 14 9 6 6 7 8 7 8 9 9 8 5 4 6 7 9 9 7 5 4 2 2 2 3 2 2 4 4 2 3 4 3 4 4 4 4 4 3 3 3 3
8 11 11 9 8 7 11 19 22 16 10 8 10 10 10 10 11 11 8 5 3 4 4 5 8 7 5 4 3 2 3 3 4 3 3 3 4 5 3 5 3 3 4 5 5 4 3 1 2
9 9 8 7 10 9 11 14 19 22 15 10 10 7 5 6 15 14 10 7 5 7 5 6 8 7 3 3 2 2 2 2 3 4 3 5 6 5 4 4 4 3 3 4 5 6 6 2 2
9 5 6 4 1 2 2 6 12 20 20 9 7 7 6 4 12 14 11 9 8 8 6 9 9 7 5 5 4 4 4 3 4 4 4 5 6 5 3 4 4 3 2 4 5 6 5 6 3
6 6 8 8 6 5 7 6 8 12 14 10 5 5 6 7 12 14 11 10 10 9 6 8 9 7 6 5 4 3 3 2 2 3 5 5 5 5 5 5 5 5 4 4 5 4 6 5 6
4 4 6 7 5 7 12 11 6 4 6 5 7 7 3 9 10 13 10 11 10 7 6 7 7 6 5 4 4 4 4 4 3 4 4 3 2 3 5 6 6 6 5 4 4 4 6 6 7
7 5 3 4 6 6 5 8 8 7 4 3 4 6 4 7 10 13 12 10 8 8 7 6 7 7 6 5 5 5 5 5 6 5 5 4 2 2 3 4 4 5 5 6 5 4 5 7 9
9 9 7 4 4 3 2 7 6 10 7 4 2 3 5 7 11 12 10 9 8 8 7 6 7 7 7 6 7 7 6 2 1 3 4 3 2 2 1 1 2 4 5 5 5 5 5 5 7
12 9 9 10 12 12 8 9 6 7 7 5 5 7 9 10 12 13 11 11 9 8 7 7 7 7 6 7 5 3 3 4 2 2 4 3 2 2 1 2 2 2 2 3 5 4 5 5 6
8 6 4 3 5 5 5 4 8 4 2 6 7 8 8 7 7 9 11 12 11 10 9 8 8 8 7 6 4 3 2 3 2 1 4 4 3 4 4 4 4 4 3 3 4 4 4 5 4
8 4 3 4 4 1 3 2 5 12 17 9 9 9 7 6 5 3 3 7 11 11 10 8 8 7 8 6 5 5 3 2 4 2 3 4 3 4 4 3 3 4 4 4 4 4 5 6 5
12 6 2 1 4 2 2 3 8 10 15 21 15 5 5 3 2 0 1 2 6 10 12 11 10 8 7 6 6 6 6 5 4 5 5 5 5 5 4 5 4 4 5 4 4 4 5 6 6
Wind_Direction
287 260 252 265 274 266 68 59 57 43 46 50 25 28 65 54 47 81 153 153 122 126 131 146 151 153 155 153 150 142 135 125 118 116 113 110 114 112 102 95 91 85 79 72 64 68 62 64 67
294 305 282 245 289 36 65 60 69 59 34 49 70 34 66 64 81 108 128 110 126 130 139 148 150 155 160 163 163 156 148 137 125 115 109 106 106 107 104 101 94 84 80 76 72 76 69 67 67
263 271 268 257 162 72 62 56 69 65 37 13 66 68 52 47 78 105 126 137 135 133 138 139 152 158 164 170 171 166 161 150 141 128 122 115 113 113 110 104 97 90 84 81 82 82 76 71 68
280 262 244 266 27 65 50 56 73 70 68 32 60 87 74 45 77 111 137 142 128 125 127 140 152 160 171 177 177 173 169 159 145 135 133 123 121 119 113 108 99 92 90 85 82 84 82 75 69
244 266 281 334 345 88 53 37 28 38 42 30 58 93 90 79 96 120 135 132 130 126 130 138 148 159 170 177 178 175 170 158 144 140 131 126 124 122 119 115 104 95 92 86 82 88 87 75 65
275 263 41 316 272 77 75 69 51 37 50 72 104 104 99 115 118 127 126 133 129 131 132 132 145 156 166 171 171 165 163 155 144 137 134 132 124 125 125 119 109 102 94 85 90 95 89 77 65
290 292 258 203 177 81 66 14 359 6 21 34 56 103 121 123 118 131 131 130 126 136 137 142 148 155 156 156 157 155 154 151 143 137 137 134 129 129 127 120 116 111 99 88 93 91 84 77 70
297 285 289 349 70 133 150 169 13 356 19 47 64 117 131 131 142 139 130 135 138 149 153 151 155 153 154 149 150 148 148 147 143 141 140 138 137 137 135 126 125 126 113 101 101 102 104 107 111
262 266 301 352 340 132 154 175 179 295 7 99 104 106 127 135 146 141 142 157 160 163 161 152 151 156 154 148 145 144 144 147 145 146 151 152 157 150 151 126 137 137 130 123 131 153 165 166 183
234 270 283 314 326 21 145 207 304 334 22 137 118 112 124 144 151 156 165 171 164 168 164 152 147 151 148 136 139 144 152 154 172 161 169 192 162 128 116 134 140 141 140 145 174 203 212 200 204
256 263 295 333 2 351 316 205 230 296 290 178 156 145 144 160 165 171 179 177 161 164 155 153 154 152 139 124 141 145 148 170 197 174 178 181 137 136 132 147 140 145 160 178 185 226 240 179 142
274 298 301 312 5 322 291 269 240 242 285 353 125 150 155 170 179 183 184 171 154 157 158 152 148 148 144 146 149 153 163 177 197 197 185 167 163 158 153 157 164 174 197 181 193 222 114 67 90
274 266 280 290 283 273 277 279 267 271 259 241 178 153 165 178 186 186 185 169 155 147 153 159 154 152 152 149 149 160 174 172 187 195 198 162 166 153 157 156 167 197 167 174 203 159 80 59 49
296 316 309 290 273 255 255 258 252 247 245 228 195 181 176 185 187 182 185 170 152 152 161 159 172 148 150 149 166 163 166 156 168 168 192 186 189 159 160 156 170 176 136 163 165 98 102 87 70
292 278 267 259 246 242 247 247 244 235 232 218 192 200 194 187 187 174 179 169 156 162 165 158 177 161 159 162 175 163 161 168 169 167 194 186 200 180 162 158 155 154 197 170 132 112 122 111 120
270 262 262 262 237 219 225 253 267 198 213 214 203 205 188 179 180 164 162 158 157 164 164 156 173 170 160 161 170 160 172 164 164 172 206 186 194 204 166 153 158 177 180 137 109 119 117 132 150
263 290 316 330 8 336 248 245 219 182 222 218 207 214 189 179 189 159 151 154 155 157 156 150 162 172 159 155 167 170 171 163 166 172 188 207 195 202 171 154 169 170 154 140 148 148 178 154 124
290 310 318 329 11 357 321 284 249 226 226 229 223 217 198 181 181 159 141 141 141 151 154 146 150 157 147 142 179 164 119 155 166 163 172 206 205 203 174 152 184 173 152 149 155 160 179 132 142
296 292 292 312 6 1 330 309 291 266 242 221 229 236 207 188 178 147 133 133 144 154 157 148 150 148 134 137 170 171 159 135 131 125 164 181 226 231 166 165 193 173 164 168 163 151 151 141 150
289 286 287 304 343 341 316 312 309 290 261 233 228 227 209 189 151 128 130 131 182 142 113 124 127 125 130 145 163 163 173 181 170 172 191 188 220 233 189 183 201 180 167 175 142 125 133 197 174
263 275 285 302 334 344 340 315 309 302 279 240 224 233 240 187 153 143 146 149 148 117 115 95 101 103 116 144 146 165 190 225 164 177 192 209 227 236 190 195 197 194 172 170 155 146 155 182 281
266 256 247 246 287 313 101 293 293 301 300 273 219 213 215 218 147 140 143 141 137 126 127 123 121 136 167 177 186 187 184 193 190 183 186 200 211 222 196 197 215 208 187 182 180 162 157 155 204
250 198 208 224 224 248 207 235 264 279 289 303 290 238 186 139 128 133 139 140 129 125 132 130 138 150 166 181 181 190 208 205 177 151 184 196 198 206 198 207 211 216 200 196 185 181 171 165 172
251 223 220 221 221 247 224 212 255 245 287 322 350 1 70 122 126 129 124 116 117 125 127 126 137 143 155 176 184 195 219 221 196 176 183 181 191 217 217 207 213 212 201 203 195 186 185 184 184
234 233 254 242 220 255 200 195 225 206 244 312 351 349 9 122 127 121 120 124 133 137 135 138 144 146 160 182 204 212 216 224 211 181 176 176 172 192 232 230 227 229 215 209 209 201 198 195 199
272 237 229 259 259 318 291 244 216 184 191 198 181 120 107 115 122 129 138 140 148 147 147 154 152 156 168 194 208 209 183 194 242 134 141 148 140 156 201 221 214 226 226 213 203 211 215 216 213
282 266 260 261 268 268 229 228 158 154 171 164 157 140 135 138 142 148 151 152 158 156 160 163 160 162 176 206 203 186 166 177 174 152 126 128 139 148 201 228 213 196 189 196 192 208 220 224 225
300 336 312 301 284 278 316 9 13 4 139 145 117 98 105 121 141 156 162 161 164 165 170 174 178 176 184 205 177 140 177 156 108 42 135 148 173 164 179 228 198 162 158 173 184 202 220 226 230
333 343 340 319 280 286 346 342 349 4 347 1 90 99 93 90 98 119 176 170 167 166 170 176 189 185 177 188 167 153 193 163 145 181 150 149 181 166 177 203 231 164 163 179 191 205 211 215 214
344 346 58 220 296 286 255 109 68 33 4 354 353 6 88 96 88 215 228 203 177 171 175 182 193 194 175 179 171 174 177 168 184 186 175 181 198 180 185 203 201 163 161 172 183 193 194 192 187